Location: Los Candelarias
(35.1234°N, 106.6639°W)
Time: 04:17:36
(UTC+00:00)

Daily predictions for brighter satellites

Satellite Brightness Start Highest point End
(mag) Time Altitude Azimuth Time Altitude Azimuth Time Altitude Azimuth
Cosmos 1437 3.2 01:30:38 10° NNE 01:33:22 33° ENE 01:36:06 10° SE
CZ-2C R/B 3.6 01:30:58 10° SE 01:35:45 39° ENE 01:40:49 10° N
Cosmos 1898 Rocket 4.5 01:31:36 10° SSW 01:36:37 53° WNW 01:41:42 10° N
CZ-2C R/B 4.1 01:33:28 10° NE 01:37:00 17° E 01:40:31 10° SE
GP-B 3.6 01:36:40 10° N 01:41:05 67° W 01:45:27 10° SSW
MOS 1 Rocket 3.6 01:40:34 10° NNE 01:44:33 35° E 01:48:27 10° SSE
Cosmos 372 Rocket 4.1 01:39:42 10° S 01:44:49 57° ESE 01:49:56 10° NNE
NOSS 2-2 (C) 3.9 01:42:33 10° SW 01:46:01 53° WNW 01:49:34 10° NNE
Cosmos 2263 Rocket 3.5 01:42:51 10° SW 01:48:07 43° WNW 01:53:26 10° N
Cosmos 1782 Rocket 3.8 01:44:20 10° S 01:48:42 76° W 01:53:10 10° N
Cosmos 1025 Rocket 4.4 01:45:51 10° NNE 01:49:05 20° ENE 01:51:49 12° ESE
ISS -1.6 01:47:51 10° W 01:50:42 25° NW 01:53:35 10° NNE
Cosmos 1464 Rocket 4.2 01:46:26 10° SSE 01:52:13 47° E 01:58:03 10° NNE
CZ-2D R/B 3.8 01:49:18 10° S 01:53:08 63° W 01:57:00 10° NNW
Cosmos 1844 Rocket 3.1 01:49:15 10° S 01:54:20 38° ESE 01:59:26 10° NE
Cosmos 1867 4.1 01:52:35 10° NNW 01:57:41 39° NE 02:01:45 15° ESE
Cosmos 2151 Rocket 4.3 01:53:53 10° SSE 01:57:47 31° E 02:01:43 10° NNE
Cosmos 2084 Rocket 3.5 01:54:47 10° NNW 01:59:17 87° ENE 02:03:50 10° SSE
SJ-11-01 4.4 01:57:19 10° SSE 02:01:55 56° ENE 02:06:31 10° N
Cosmos 2150 Rocket 4.1 01:59:51 10° S 02:05:01 53° ESE 02:10:17 10° NNE
CZ-2C R/B 0.8 02:01:27 10° W 02:05:08 89° SE 02:07:04 24° E
Cosmos 1125 Rocket 4.0 02:04:22 10° SSE 02:09:11 37° E 02:14:02 10° NE
Milstar 3 Cent rocket 3.4 02:04:31 10° SW 02:11:23 32° S 02:14:14 20° ESE
Longmarch 3A Rocket 3.0 02:10:44 10° SSW 02:12:28 19° SSE 02:12:56 19° SE
USA 234 3.6 02:07:03 10° ENE 02:13:09 40° SE 02:19:14 10° SSW
Cosmos 1943 3.4 02:07:39 10° NNW 02:13:18 75° WSW 02:18:56 10° SSE
CSL-04 Debris 4.2 02:11:39 10° SSE 02:17:02 86° WSW 02:22:27 10° NNW
Shenzhou-11 Module 3.7 02:15:40 10° SSW 02:16:04 13° SSW 02:16:04 13° SSW
Cosmos 1975 Rocket 3.4 02:13:42 10° NNW 02:17:59 65° W 02:22:14 10° S
Cosmos 1891 Rocket 4.4 02:13:10 10° S 02:19:20 87° E 02:25:25 10° N
BREEZE-M DEB (TANK) 3.5 02:18:01 10° NNW 02:19:17 18° NNE 02:19:17 18° NNE
CSL-04 Rocket 3.8 02:18:21 10° S 02:23:43 79° WSW 02:29:13 10° NNW
IRIS 4.4 02:21:23 10° WSW 02:25:15 65° NNW 02:26:06 40° NE
NOSS 3-4 (A) 3.8 02:20:44 10° S 02:25:56 34° ESE 02:30:10 15° NE
NOSS 3-4 (C) 3.9 02:20:53 10° S 02:26:03 33° ESE 02:29:47 17° ENE
HJ-1C 3.9 02:26:43 10° S 02:29:56 57° W 02:33:11 10° NNW
Cosmos 1674 4.5 02:27:20 10° NNE 02:28:51 18° NE 02:28:51 18° NE
H-2A R/B 2.8 02:32:29 10° SW 02:33:47 22° S 02:33:47 22° S
Meteor 1-15 Rocket 4.2 02:29:01 10° S 02:34:27 56° E 02:40:00 10° NNE
Exosat Rocket 3.6 02:30:12 10° S 02:36:18 64° ESE 02:41:19 10° NNE
H-2A R/B 2.2 02:32:47 10° S 02:37:41 67° W 02:42:41 10° NNW
IRS-1A Rocket 4.4 02:38:36 29° SE 02:41:33 57° ENE 02:47:16 10° N
Cosmos 1048 Rocket 4.3 02:37:19 10° N 02:42:29 48° ENE 02:43:26 43° E
CZ-4 R/B 4.3 02:44:57 10° SW 02:47:49 18° W 02:50:41 10° NW
ATLAS 2AS CENTAUR R/B 3.1 02:40:41 10° S 02:48:12 52° ESE 02:55:51 10° NE
Nadezhda 4 Rocket 3.8 02:42:39 10° N 02:48:46 71° E 02:52:33 24° SSE
Cosmos 2034 Rocket 4.1 02:44:17 10° S 02:50:39 80° W 02:57:02 10° N
BREEZE-M DEB (TANK) 3.8 02:47:39 10° NW 02:51:22 52° NE 02:54:11 36° E
Okean 1 Rocket 3.7 02:53:24 41° NE 02:53:24 41° NE 02:56:32 10° NNE
Cosmos 1707 4.1 02:51:37 10° NNW 02:55:11 38° W 02:58:23 12° SSW
Ariane Rocket 2.8 02:56:55 50° SSE 02:58:14 81° ENE 03:03:20 10° N
CENTAUR R/B 3.7 02:51:29 10° NNW 02:59:16 43° NE 03:01:27 37° E
GOES 2 Rocket 4.1 02:57:03 10° WSW 03:00:00 31° SSW 03:00:00 31° SSW
ATLAS 3B R/B 4.4 03:02:51 10° N 03:06:54 16° NE 03:07:17 16° NE
SJ-6B 4.0 03:08:51 34° NNW 03:08:51 34° NNW 03:11:05 10° NNW
Cosmos 494 Rocket 4.4 03:02:35 10° N 03:06:52 46° NE 03:06:52 46° NE
ARGOS 4.0 03:02:47 10° S 03:07:54 47° W 03:13:05 10° NNW
DELTA 2 R/B (1) 4.2 03:03:51 10° WNW 03:09:05 44° SSW 03:09:53 41° S
SL-08 RB Rocket 4.3 03:09:04 37° SSW 03:10:36 55° W 03:15:06 10° NNW
Meteor 2-5 Rocket 4.1 03:05:49 10° N 03:10:22 47° NE 03:10:22 47° NE
ATLAS 5 CENTAUR R/B 4.4 03:08:18 10° NW 03:12:49 47° SW 03:28:45 10° SSE
USA 186 4.2 03:14:50 22° NW 03:14:50 22° NW 03:16:17 10° NNW
USA 238 DEB 3.8 03:08:03 10° NNW 03:15:23 71° ENE 03:16:46 59° ESE
USA 238 3.8 03:08:10 10° NNW 03:15:29 70° ENE 03:16:50 59° ESE
CZ-2C R/B 3.4 03:12:06 10° N 03:17:31 55° WNW 03:22:59 10° SSW
Cosmos 1634 Rocket 3.8 03:21:52 79° ESE 03:21:59 79° E 03:28:11 10° N
SPOT 3 Rocket 4.5 03:25:35 38° N 03:25:35 38° N 03:28:50 10° N
NOSS 3-2 (A) 4.2 03:34:27 10° NW 03:42:21 75° WSW 03:43:56 61° S
CZ-2C R/B 4.2 03:41:17 10° W 03:41:25 11° W 03:41:25 11° W
Cosmos 1092 Rocket 4.3 03:43:35 10° NNW 03:49:38 60° W 03:49:45 59° W
Cosmos 2026 Rocket 4.4 03:47:53 10° N 03:53:10 61° NNW 03:53:10 61° NNW
USA 234 3.9 03:52:10 23° NNE 03:56:09 51° NW 04:02:25 10° WSW
NOSS 3-2 (C) 4.3 04:10:13 10° NW 04:17:17 66° W 04:17:17 66° W
ATLAS 2AS CENTAUR R/B 4.3 04:32:18 10° WSW 04:39:26 36° NW 04:46:37 10° NNE
CENTAUR R/B 4.0 04:42:10 10° NW 04:48:39 44° W 04:48:39 44° W
ATLAS 3B R/B 4.4 04:51:43 10° NNW 04:54:33 27° NNW 04:54:33 27° NNW
BREEZE-M DEB (TANK) 4.4 09:39:27 63° ENE 09:39:27 63° ENE 09:53:08 10° ENE
Lacrosse 5 4.4 09:45:25 15° NNE 09:45:25 15° NNE 09:46:26 10° NNE
NOSS 3-3 (A) 4.5 10:06:31 52° NE 10:06:31 52° NE 10:11:11 10° NE
NOSS 3-3 (C) 4.5 10:06:41 51° NE 10:06:41 51° NE 10:11:16 10° NE
USA 267 3.9 10:04:28 10° NNE 10:09:48 42° NNW 10:09:48 42° NNW
MSX 3.8 10:24:17 10° NNE 10:30:04 81° ESE 10:30:09 81° ESE
Timation 1 Rocket 4.3 10:25:52 10° NNW 10:31:54 83° ENE 10:37:55 10° SSE
Cosmos 1980 Rocket 3.4 10:34:34 31° NNW 10:34:34 31° NNW 10:37:57 10° N
Cosmos 2322 Rocket 3.0 10:37:25 32° SSE 10:39:35 49° ESE 10:45:03 10° NNE
USA 234 4.2 10:35:55 10° ESE 10:42:04 46° NE 10:48:13 10° NNW
SL-4 R/B 2.6 10:43:55 62° NE 10:43:55 62° NE 10:47:52 10° NE
Cosmos 2263 Rocket 3.1 10:39:09 10° N 10:44:38 48° ENE 10:50:05 10° SE
Cosmos 2228 Rocket 4.5 10:47:14 29° N 10:47:14 29° N 10:49:28 10° N
SL-16 R/B 2.2 10:47:26 51° S 10:48:52 75° ESE 10:54:32 10° NNE
Meteor 1-4 Rocket 4.3 10:50:46 27° NNE 10:50:46 27° NNE 10:52:32 10° NNE
ARIANE 5 R/B 4.2 10:51:03 10° NNW 10:53:01 20° NNW 10:53:01 20° NNW
Cosmos 1934 Rocket 4.0 10:51:38 10° NNW 10:57:13 52° W 10:57:13 52° W
Cosmos 1869 Rocket 3.7 10:54:04 10° N 10:58:24 71° E 11:02:41 10° SSE
CZ-2C R/B 2.7 10:55:40 10° NNE 11:00:50 72° ESE 11:04:21 21° S
Meteor 1-10 Rocket 4.1 10:59:42 41° SSW 11:01:47 77° W 11:07:40 10° N
IDEFIX/ARIANE 42P 3.7 10:57:30 10° N 11:00:51 29° NW 11:00:51 29° NW
Cosmos 1763 Rocket 3.4 11:01:39 47° SSW 11:03:16 87° WNW 11:08:37 10° NNE
Cosmos 2227 4.2 10:58:25 10° NNW 11:04:05 78° ENE 11:09:41 10° SSE
CZ-4B R/B 4.2 11:04:39 10° ESE 11:06:54 18° ENE 11:09:11 10° NNE
IRIDIUM 106 4.3 11:01:55 10° N 11:07:10 87° E 11:12:22 10° S
SJ 16-02 1.4 11:03:28 10° NNW 11:07:52 79° ENE 11:12:15 10° SSE
PSLV R/B 3.3 11:06:38 10° N 11:10:51 82° WNW 11:11:42 55° SSW
H-2A R/B 1.9 11:06:45 10° S 11:11:05 80° WSW 11:15:31 10° NNW
Cosmos 967 Rocket 4.4 11:11:37 29° SSW 11:15:09 84° WNW 11:21:36 10° NNE
Cosmos 1238 Rocket 4.3 11:11:13 10° NNW 11:17:05 38° W 11:17:48 37° WSW
Meteor 1-5 Rocket 4.0 11:12:59 10° NNW 11:18:18 69° W 11:23:42 10° S
Cosmos 1153 Rocket 4.5 11:14:35 10° N 11:20:59 88° W 11:27:16 10° S
Landsat 5 3.6 11:16:41 10° S 11:21:07 58° W 11:25:34 10° NNW
ERS-2 2.3 11:18:03 10° SSE 11:21:40 73° ENE 11:25:20 10° N
X-37B 2.9 11:23:27 15° NNW 11:24:47 19° NNE 11:27:10 10° ENE
Cosmos 1605 Rocket 4.2 11:18:47 10° NNW 11:24:57 51° W 11:31:04 10° SSW
SL-19 R/B 4.5 11:23:46 10° NNE 11:28:18 83° ESE 11:31:52 12° SSW
PAYLOAD A 4.0 11:24:10 10° N 11:28:40 48° WNW 11:30:36 30° SW
Cosmos 2333 Rocket 4.5 11:25:08 10° SSE 11:29:43 25° ESE 11:34:19 10° NE
Cosmos 540 Rocket 3.5 11:24:39 10° SSW 11:29:47 82° ESE 11:34:59 10° NNE
BREEZE M DEB (TANK) 3.5 11:20:05 10° NW 11:31:14 70° NNE 11:34:46 10° ESE
Cosmos 990 Rocket 3.9 11:26:35 10° NNW 11:31:48 88° WSW 11:37:01 10° SSE
Cosmos 468 Rocket 4.5 11:30:16 32° WSW 11:31:55 40° WNW 11:36:52 10° N
Cosmos 1484 Rocket 3.3 11:32:47 10° NNE 11:36:45 63° E 11:40:42 10° S
ALOS 2.6 11:35:07 10° NNE 11:39:45 66° E 11:44:23 10° S
Cosmos 1536 2.7 11:40:04 10° N 11:44:09 82° W 11:48:12 10° S
Cosmos 1437 Rocket 3.5 11:43:29 10° S 11:47:09 53° E 11:50:52 10° NNE
Meteor 1-31 Rocket 3.0 11:44:30 10° NNE 11:48:19 70° ESE 11:52:09 10° S
